RH
93 91 82 78 80 75 75 74 73 76 76 74 75 73 73 74 74 75 73 72 71 70 68 68 70 69 70 67 67 72 72 71 71 72 68 68 71 72 70 72 75 72 77
88 87 84 77 79 77 77 76 75 76 77 76 74 72 71 71 72 71 71 72 73 72 71 70 69 69 71 71 70 71 71 71 69 67 65 72 73 73 72 71 70 72 76
84 86 81 81 79 78 79 77 78 74 76 77 78 74 74 74 75 74 76 77 73 74 72 73 74 72 72 73 71 70 70 72 69 67 67 79 76 73 71 70 73 74 75
83 85 81 83 81 78 79 78 76 73 75 77 76 76 76 73 70 71 65 74 75 72 72 73 75 76 70 71 69 70 72 72 69 67 84 78 67 71 71 71 73 75 75
87 89 84 81 79 78 78 76 76 74 75 76 76 75 76 74 71 70 70 73 74 74 72 72 71 68 66 67 72 70 70 73 64 75 84 85 79 68 72 73 73 75 74
95 94 82 78 76 76 80 79 80 76 76 76 75 74 75 72 68 70 75 72 73 70 69 72 74 71 71 72 70 70 72 75 76 86 84 82 86 73 70 73 74 75 75
96 91 79 78 72 75 76 76 77 76 74 75 75 75 70 67 68 74 74 72 71 74 75 67 69 73 71 71 70 72 74 71 86 83 86 83 88 76 71 72 72 75 76
90 86 80 77 78 78 77 73 72 71 74 75 76 71 71 75 72 72 72 72 74 72 72 70 66 66 70 71 72 75 68 72 71 84 86 87 82 78 71 72 71 74 76
83 85 87 80 76 72 70 74 74 74 74 75 74 70 72 74 72 73 72 73 69 68 69 70 70 71 74 69 70 70 73 69 84 88 77 85 78 72 78 77 79 73 74
88 86 93 90 65 71 80 73 77 74 74 70 75 73 72 74 75 72 74 72 69 68 71 71 71 71 72 72 71 71 68 68 83 85 88 82 75 68 73 72 65 74 72
92 97 96 94 94 92 88 79 71 73 73 72 77 74 75 86 80 77 79 75 70 69 68 68 70 72 72 73 73 73 72 94 89 88 95 85 76 69 65 67 66 71 74
97 98 97 96 95 95 78 86 88 83 84 87 88 87 92 90 91 81 80 76 73 71 71 71 72 72 72 86 86 81 95 91 92 91 93 81 89 78 67 72 67 67 73
89 92 97 98 96 95 88 95 93 92 93 92 92 92 93 88 90 87 88 95 96 86 90 86 83 90 91 90 93 95 92 92 97 90 87 80 81 82 73 70 65 67 72
84 88 94 95 95 96 94 96 95 92 95 96 93 92 95 94 92 91 90 93 90 93 87 92 94 91 92 95 92 94 91 92 96 95 93 85 81 79 79 78 73 69 71
78 83 91 90 92 93 96 98 96 93 94 94 94 92 93 93 92 89 88 91 94 92 94 93 94 95 94 93 92 93 92 91 84 93 96 87 83 82 79 80 82 74 72
75 77 82 85 88 89 96 97 97 95 91 91 92 92 91 91 91 90 88 87 90 92 91 94 95 96 96 96 95 95 91 89 88 89 92 92 84 84 83 81 91 89 75
73 72 78 80 82 88 92 94 95 93 85 86 87 89 91 88 89 91 91 88 92 94 92 94 94 94 95 94 94 92 93 89 87 86 88 92 89 88 86 80 91 94 93
68 73 74 67 78 84 86 91 88 89 86 83 81 86 86 88 89 91 95 94 85 89 88 88 92 95 94 94 93 91 89 85 86 87 84 86 88 90 94 88 90 91 89
64 70 74 74 79 82 88 89 87 84 85 85 82 83 85 84 85 90 90 91 88 92 90 87 87 93 94 94 90 89 89 86 87 84 82 83 84 86 83 82 80 77 87
60 67 72 75 80 83 88 87 87 86 85 84 83 81 83 82 84 88 93 91 92 93 92 89 90 87 89 95 89 90 90 85 86 80 84 77 82 81 80 84 94 90 77
60 68 72 78 82 82 87 87 89 82 85 87 83 83 85 84 85 90 93 93 94 92 86 90 92 92 90 94 94 92 90 86 81 83 86 87 82 77 76 89 93 96 88
61 67 74 75 80 77 75 79 82 84 82 82 85 85 83 85 86 87 92 93 88 91 89 89 89 92 94 93 95 93 94 78 84 78 76 75 73 76 76 81 87 89 90
61 67 72 73 77 75 77 83 86 84 87 87 88 87 83 85 85 87 91 92 89 93 90 88 88 87 93 89 92 92 91 93 95 78 75 74 74 74 79 81 84 86 85
57 62 66 69 74 73 80 77 80 83 75 86 84 86 86 84 82 86 88 91 92 94 92 87 84 90 93 93 93 90 90 90 92 84 76 75 71 69 76 78 79 82 84
54 59 62 69 72 73 78 76 75 84 80 83 84 86 88 87 85 83 86 88 91 89 91 90 89 92 94 93 93 96 93 94 93 93 89 82 76 73 79 79 78 86 83
52 57 61 70 73 73 78 76 77 78 82 84 86 83 85 87 84 85 84 88 90 89 92 90 88 90 92 92 96 96 94 91 90 95 95 89 85 74 76 81 80 78 85
Wind_Speed
6 8 16 15 14 16 15 15 14 14 14 16 17 16 17 15 14 12 12 11 10 9 8 7 6 5 4 3 3 4 5 5 4 6 7 9 10 10 10 11 10 10 13
12 9 17 15 16 16 16 16 15 14 16 17 17 16 15 13 12 12 12 11 11 11 10 8 8 7 6 5 5 6 6 7 6 5 6 8 9 11 11 10 9 9 13
15 10 13 15 14 14 16 15 15 15 14 15 16 15 15 12 11 11 10 9 10 10 9 7 7 7 6 6 5 6 6 8 7 6 7 3 4 9 10 9 9 10 11
13 9 10 15 14 14 16 15 14 15 13 14 14 14 14 14 11 10 10 9 9 9 9 8 9 8 7 6 5 5 7 7 7 6 3 2 2 7 9 11 11 12 11
11 8 9 15 15 14 15 15 15 14 13 13 14 12 12 12 13 10 10 9 9 9 8 7 8 8 8 8 7 6 7 7 8 6 3 2 1 9 10 12 11 12 12
9 8 12 16 15 14 13 14 15 14 14 13 12 12 11 11 11 11 10 9 8 9 8 7 8 8 7 8 8 7 8 7 6 2 3 4 3 9 12 12 12 13 11
10 8 11 15 15 15 15 13 12 13 13 13 12 11 11 12 12 10 9 10 8 8 8 8 8 8 9 8 7 7 8 7 4 3 4 6 5 11 13 13 13 12 15
12 8 9 14 14 15 14 14 13 13 12 13 12 12 11 10 11 9 9 8 8 7 7 8 7 7 7 6 6 5 5 6 5 4 4 3 7 9 9 9 10 12 12
10 9 6 7 11 14 14 13 13 12 12 12 12 12 10 10 10 9 8 8 8 7 7 7 7 7 6 7 7 7 4 7 3 2 3 2 6 9 9 13 10 11 13
7 6 5 5 8 8 6 14 12 12 12 12 10 11 10 9 10 8 7 7 8 7 7 6 6 8 8 8 8 8 6 5 5 4 3 2 6 11 13 12 14 10 13
6 5 5 5 5 5 5 6 12 13 12 11 10 10 8 2 3 5 6 7 7 6 7 8 9 10 10 11 11 11 10 2 5 4 3 7 7 10 13 14 16 17 14
8 7 6 5 5 5 5 2 5 4 3 4 3 3 3 3 2 3 5 8 8 8 9 10 11 11 11 2 3 8 0 3 4 5 3 12 8 13 15 16 17 17 15
10 7 7 6 5 5 4 3 2 2 2 2 4 3 3 2 2 2 2 2 2 8 2 5 5 1 3 3 3 3 3 3 3 4 7 15 18 16 17 17 17 18 18
10 9 8 7 6 5 3 3 3 3 2 2 3 4 3 2 3 3 3 3 3 3 3 3 2 4 4 5 5 5 5 4 2 3 6 15 18 18 16 17 18 20 21
11 11 10 9 8 6 5 4 3 3 3 3 3 4 3 3 3 3 4 3 3 3 3 3 3 4 5 4 5 4 3 2 2 3 3 12 16 18 19 19 20 23 24
9 11 10 11 9 7 5 6 5 3 3 3 3 4 5 3 3 3 4 4 4 3 3 2 4 3 3 4 3 5 0 3 5 4 2 3 10 14 19 15 19 22 23
11 11 11 11 9 9 7 6 5 5 5 4 5 5 5 5 4 4 4 5 4 3 3 3 3 2 4 4 4 3 2 0 3 4 2 2 4 7 13 13 20 20 18
11 12 10 10 11 9 7 5 5 5 4 5 5 4 6 6 5 4 4 4 2 1 1 2 3 2 2 2 2 3 2 2 4 3 2 4 4 3 4 8 17 16 13
15 14 13 12 12 11 6 4 4 6 5 4 4 4 6 6 6 5 4 3 2 2 2 2 2 1 2 3 3 1 1 2 2 2 3 3 5 4 2 3 14 16 12
15 14 12 10 10 9 5 4 2 2 3 3 5 6 6 5 5 4 3 3 2 3 1 1 1 2 1 2 2 3 1 1 2 3 4 4 4 4 3 3 6 5 13
13 13 14 13 11 9 4 4 3 6 4 3 6 7 6 5 6 5 3 3 4 3 1 2 1 3 2 3 2 2 2 2 2 2 2 3 2 2 3 4 3 4 6
17 17 15 15 12 10 8 5 3 3 3 3 3 4 5 7 6 5 5 4 3 1 2 1 1 1 1 3 2 1 4 3 2 4 3 4 6 3 6 6 4 4 5
16 17 17 17 16 13 10 5 3 2 1 1 1 2 5 6 7 7 6 4 3 2 2 1 1 1 2 2 3 2 2 1 2 2 4 5 6 4 5 5 5 4 4
17 16 17 16 16 13 11 10 9 6 8 4 4 3 4 6 7 6 5 5 4 2 3 1 2 2 2 1 1 2 2 2 1 3 2 3 4 5 4 4 4 3 4
16 16 16 15 13 13 14 13 11 6 5 4 3 5 4 4 5 5 6 5 5 4 3 3 2 2 2 2 2 1 1 1 1 1 2 4 2 4 2 4 5 4 4
14 15 15 16 15 13 14 13 14 13 8 5 4 4 4 4 4 5 5 5 4 4 4 3 3 3 3 2 1 1 1 1 1 2 0 2 2 2 2 0 2 4 4
Wind_Direction
184 169 158 156 147 150 143 134 129 129 125 118 118 126 129 137 142 146 149 154 158 161 168 170 169 175 139 151 135 128 133 145 149 136 132 129 134 131 144 144 146 126 130
144 160 152 155 148 152 148 142 137 135 133 133 132 134 136 144 151 157 163 168 171 172 173 173 176 178 176 165 155 142 142 149 148 133 125 121 127 129 136 140 130 140 138
143 152 147 149 145 147 150 147 144 140 139 134 136 141 140 141 150 156 153 160 160 160 159 156 171 167 173 158 161 148 148 143 150 144 120 111 122 132 132 136 134 137 155
140 139 143 145 145 149 151 151 149 145 143 139 141 145 147 148 154 167 165 153 156 163 154 160 148 148 162 149 162 151 157 164 161 137 108 116 183 150 153 150 155 158 166
132 124 144 148 147 149 150 154 153 149 147 147 144 147 150 155 154 170 161 163 160 157 152 163 145 149 153 161 155 167 169 168 157 117 153 196 288 170 160 152 160 155 159
121 125 155 150 154 153 151 156 160 152 150 149 148 150 160 145 161 168 171 161 170 159 158 157 152 153 155 160 170 183 180 181 147 152 195 217 236 177 165 160 162 158 154
129 143 150 158 160 159 162 158 151 154 157 152 152 150 146 156 164 163 172 168 162 162 177 163 172 169 171 174 181 187 180 177 151 164 211 206 203 183 177 167 167 162 157
141 149 157 159 164 161 156 162 163 157 163 156 151 159 158 167 161 169 166 164 169 168 182 178 179 184 191 191 199 211 173 160 152 178 186 190 197 183 180 181 168 172 174
146 142 152 157 166 164 167 164 164 157 162 158 162 160 167 163 169 171 174 184 177 186 188 187 191 208 215 214 218 225 223 199 163 197 185 177 222 181 190 182 181 193 181
139 142 142 151 165 169 159 167 163 161 161 164 168 165 171 180 175 174 186 192 195 196 209 205 209 224 229 236 239 242 231 208 172 177 192 183 235 206 197 192 186 207 194
137 147 149 145 142 144 145 179 166 166 167 167 175 170 174 158 199 205 183 221 214 210 219 224 230 236 233 238 243 246 246 163 181 182 183 227 239 230 215 204 176 202 209
169 175 164 155 158 152 160 186 136 176 153 166 157 163 141 171 195 214 218 224 237 231 233 239 234 236 245 236 262 263 271 200 194 185 194 200 197 244 225 196 192 191 206
172 177 175 160 155 161 154 140 141 156 152 163 172 185 180 180 228 257 259 281 310 263 254 272 280 310 285 253 238 242 249 220 200 205 202 217 212 220 223 218 200 190 195
172 183 172 164 159 168 149 158 167 167 176 180 193 201 180 204 220 245 241 242 247 268 249 253 278 274 272 249 258 239 233 217 210 215 210 220 227 235 236 220 216 198 202
178 182 178 171 175 173 170 163 168 188 187 190 195 207 198 215 220 246 261 259 251 246 244 256 264 260 279 288 259 247 227 214 233 231 221 231 233 237 237 227 223 211 200
178 188 176 180 178 169 177 175 183 177 185 203 214 217 215 218 230 229 261 263 258 237 257 271 258 286 291 292 264 277 181 227 241 262 215 238 259 261 250 245 231 226 206
185 178 182 180 173 176 186 182 183 188 189 206 222 222 219 221 232 247 261 261 253 264 281 268 293 307 311 339 359 37 72 273 317 309 294 296 278 281 276 241 216 218 204
172 182 180 183 178 178 187 181 181 187 184 207 221 211 216 225 229 242 254 258 281 300 255 299 306 316 320 356 344 357 19 353 336 312 266 259 289 318 318 3 92 153 193
179 177 183 184 176 178 176 174 186 189 195 208 216 214 214 219 221 215 226 252 283 278 283 304 316 322 345 342 319 309 333 300 305 320 302 300 303 312 318 93 154 172 170
182 180 182 179 172 171 155 150 170 207 232 225 222 219 203 215 209 199 221 241 227 245 251 279 357 336 334 329 321 321 313 276 327 308 298 300 286 287 296 95 151 186 192
180 173 180 180 173 165 157 167 174 209 216 228 221 215 199 206 204 199 219 222 216 230 276 24 31 15 347 345 350 10 6 360 336 306 306 292 317 3 43 86 139 174 188
179 184 180 187 175 183 181 181 159 166 209 224 205 203 199 192 192 192 204 215 218 256 296 334 42 7 314 12 59 52 14 351 357 9 2 7 27 52 67 89 110 151 171
185 185 185 186 184 185 176 135 85 91 354 163 218 184 206 191 189 205 200 205 193 188 251 204 151 138 13 18 50 125 65 7 324 332 358 11 36 66 84 94 106 132 148
190 188 186 186 183 183 163 171 181 185 195 201 192 187 184 198 205 198 201 213 197 203 222 221 184 162 133 342 7 70 74 122 76 338 324 343 61 56 97 108 120 137 147
181 186 186 183 186 179 176 182 187 193 195 179 163 178 181 199 212 196 203 210 203 197 214 202 193 178 186 177 182 156 126 113 140 135 322 336 11 52 86 145 154 151 168
187 181 180 179 186 185 178 184 188 197 190 175 170 185 199 197 207 208 209 211 208 191 200 219 225 209 206 209 178 201 195 171 163 111 272 302 298 332 43 173 183 168 170